EN

Hourly Weather Abdullino

Today, 14 June, Monday

Time Temperature Precipitation Wind Pressure Humidity
00:00 +20°C° 0 mm 1 mps 751 mmHg 54%
01:00 +20°C° 0 mm 1 mps 750 mmHg 52%
02:00 +20°C° 0 mm 1 mps 750 mmHg 52%
03:00 +19°C° 0 mm 2 mps 750 mmHg 52%
04:00 +18°C° 0 mm 2 mps 751 mmHg 52%
05:00 +20°C° 0 mm 2 mps 751 mmHg 53%
06:00 +21°C° 0 mm 2 mps 751 mmHg 54%
07:00 +23°C° 0 mm 2 mps 751 mmHg 55%
08:00 +25°C° 0 mm 3 mps 751 mmHg 47%
09:00 +27°C° 0 mm 4 mps 751 mmHg 39%
10:00 +28°C° 0 mm 5 mps 751 mmHg 32%
11:00 +29°C° 0 mm 4 mps 751 mmHg 33%
12:00 +29°C° 0 mm 4 mps 751 mmHg 34%
13:00 +30°C° 0 mm 4 mps 751 mmHg 35%
14:00 +30°C° 0 mm 4 mps 751 mmHg 37%
15:00 +30°C° 0 mm 4 mps 750 mmHg 38%
16:00 +30°C° 0 mm 4 mps 750 mmHg 39%
17:00 +28°C° 0 mm 3 mps 750 mmHg 48%
18:00 +27°C° 0 mm 2 mps 750 mmHg 56%
19:00 +25°C° 0 mm 2 mps 750 mmHg 65%
20:00 +24°C° 0 mm 2 mps 750 mmHg 66%
21:00 +23°C° 0 mm 2 mps 750 mmHg 66%
22:00 +23°C° 0 mm 2 mps 750 mmHg 67%
23:00 +21°C° 0 mm 2 mps 750 mmHg 69%

Tomorrow, 15 June, Tuesday

Time Temperature Precipitation Wind Pressure Humidity
00:00 +20°C° 0 mm 2 mps 749 mmHg 71%
01:00 +19°C° 0 mm 2 mps 749 mmHg 74%
02:00 +19°C° 0 mm 2 mps 749 mmHg 74%
03:00 +19°C° 0 mm 2 mps 749 mmHg 74%
04:00 +20°C° 0 mm 1 mps 749 mmHg 74%
05:00 +21°C° 0 mm 1 mps 749 mmHg 74%
06:00 +21°C° 0 mm 1 mps 749 mmHg 75%
07:00 +22°C° 0 mm 1 mps 749 mmHg 75%
08:00 +23°C° 0 mm 1 mps 749 mmHg 72%
09:00 +24°C° 0 mm 1 mps 749 mmHg 69%
10:00 +25°C° 0 mm 1 mps 749 mmHg 65%
11:00 +25°C° 0.1 mm 2 mps 749 mmHg 66%
12:00 +25°C° 0.1 mm 2 mps 749 mmHg 67%
13:00 +25°C° 0.1 mm 2 mps 749 mmHg 68%
14:00 +25°C° 0.5 mm 3 mps 749 mmHg 73%
15:00 +24°C° 0.5 mm 3 mps 749 mmHg 78%
16:00 +24°C° 0.5 mm 3 mps 749 mmHg 83%
17:00 +24°C° 0.8 mm 3 mps 748 mmHg 86%
18:00 +23°C° 0.8 mm 2 mps 748 mmHg 89%
19:00 +23°C° 0.8 mm 2 mps 748 mmHg 92%
20:00 +22°C° 0.1 mm 1 mps 748 mmHg 93%
21:00 +21°C° 0.1 mm 1 mps 748 mmHg 94%
22:00 +18°C° 0.1 mm 0 mps 748 mmHg 95%
23:00 +18°C° 0 mm 0 mps 748 mmHg 95%

Day after tomorrow, 16 June, Wednesday

Time Temperature Precipitation Wind Pressure Humidity
00:00 +17°C° 0 mm 0 mps 748 mmHg 95%
01:00 +17°C° 0 mm 0 mps 748 mmHg 94%
02:00 +17°C° 0 mm 0 mps 748 mmHg 94%
03:00 +18°C° 0 mm 1 mps 748 mmHg 95%
04:00 +18°C° 0 mm 1 mps 748 mmHg 95%
05:00 +19°C° 0 mm 1 mps 748 mmHg 92%
06:00 +21°C° 0 mm 1 mps 748 mmHg 89%
07:00 +22°C° 0 mm 1 mps 748 mmHg 86%
08:00 +25°C° 0 mm 1 mps 748 mmHg 72%
09:00 +28°C° 0 mm 1 mps 747 mmHg 57%
10:00 +30°C° 0 mm 2 mps 747 mmHg 43%
11:00 +31°C° 0 mm 2 mps 747 mmHg 39%
12:00 +33°C° 0 mm 3 mps 747 mmHg 35%
13:00 +34°C° 0 mm 3 mps 746 mmHg 31%
14:00 +34°C° 0 mm 3 mps 746 mmHg 34%
15:00 +33°C° 0 mm 3 mps 746 mmHg 36%
16:00 +33°C° 0 mm 4 mps 746 mmHg 39%
17:00 +30°C° 0 mm 3 mps 745 mmHg 47%
18:00 +28°C° 0 mm 2 mps 745 mmHg 56%
19:00 +26°C° 0 mm 1 mps 745 mmHg 64%
20:00 +24°C° 0 mm 1 mps 745 mmHg 68%
21:00 +23°C° 0 mm 2 mps 744 mmHg 72%
22:00 +20°C° 0 mm 2 mps 744 mmHg 76%
23:00 +20°C° 0.7 mm 2 mps 744 mmHg 81%

17 June, Thursday

Time Temperature Precipitation Wind Pressure Humidity
00:00 +19°C° 0.7 mm 2 mps 744 mmHg 87%
01:00 +18°C° 0.7 mm 2 mps 744 mmHg 93%
02:00 +18°C° 0.9 mm 2 mps 743 mmHg 94%
03:00 +18°C° 0.9 mm 3 mps 743 mmHg 95%
04:00 +18°C° 0.9 mm 4 mps 742 mmHg 95%
05:00 +19°C° 0.5 mm 3 mps 742 mmHg 94%
06:00 +19°C° 0.5 mm 3 mps 742 mmHg 93%
07:00 +20°C° 0.5 mm 3 mps 742 mmHg 91%
08:00 +20°C° 0.1 mm 3 mps 742 mmHg 90%
09:00 +20°C° 0.1 mm 3 mps 742 mmHg 88%
10:00 +21°C° 0.1 mm 3 mps 742 mmHg 86%
11:00 +21°C° 0.2 mm 3 mps 743 mmHg 84%
12:00 +21°C° 0.2 mm 3 mps 743 mmHg 82%
13:00 +22°C° 0.2 mm 4 mps 743 mmHg 79%
14:00 +21°C° 0.2 mm 3 mps 743 mmHg 79%
15:00 +20°C° 0.2 mm 3 mps 744 mmHg 79%
16:00 +19°C° 0.2 mm 3 mps 744 mmHg 79%
17:00 +19°C° 0 mm 3 mps 744 mmHg 72%
18:00 +19°C° 0 mm 4 mps 745 mmHg 65%
19:00 +19°C° 0 mm 4 mps 745 mmHg 58%
20:00 +17°C° 0 mm 3 mps 745 mmHg 63%
21:00 +15°C° 0 mm 2 mps 746 mmHg 69%
22:00 +14°C° 0 mm 2 mps 746 mmHg 75%
23:00 +13°C° 0 mm 2 mps 747 mmHg 77%

18 June, Friday

Time Temperature Precipitation Wind Pressure Humidity
00:00 +12°C° 0 mm 2 mps 747 mmHg 79%
01:00 +10°C° 0 mm 2 mps 748 mmHg 81%
02:00 +9°C° 0 mm 2 mps 748 mmHg 82%
03:00 +8°C° 0 mm 2 mps 748 mmHg 83%
04:00 +7°C° 0 mm 2 mps 749 mmHg 84%
05:00 +8°C° 0 mm 2 mps 749 mmHg 77%
06:00 +10°C° 0 mm 3 mps 749 mmHg 69%
07:00 +12°C° 0 mm 3 mps 750 mmHg 62%
08:00 +14°C° 0 mm 3 mps 750 mmHg 55%
09:00 +15°C° 0 mm 4 mps 750 mmHg 47%
10:00 +18°C° 0 mm 4 mps 750 mmHg 39%
11:00 +18°C° 0 mm 4 mps 750 mmHg 37%
12:00 +19°C° 0 mm 5 mps 750 mmHg 35%
13:00 +20°C° 0 mm 5 mps 750 mmHg 33%
14:00 +20°C° 0 mm 5 mps 751 mmHg 37%
15:00 +19°C° 0 mm 4 mps 751 mmHg 41%
16:00 +19°C° 0 mm 4 mps 751 mmHg 45%
17:00 +18°C° 0 mm 4 mps 751 mmHg 51%
18:00 +17°C° 0 mm 4 mps 751 mmHg 56%
19:00 +17°C° 0 mm 3 mps 751 mmHg 62%
20:00 +14°C° 0 mm 3 mps 752 mmHg 69%
21:00 +13°C° 0 mm 2 mps 752 mmHg 77%
22:00 +11°C° 0 mm 1 mps 753 mmHg 84%
23:00 +10°C° 0 mm 1 mps 753 mmHg 86%

19 June, Saturday

Time Temperature Precipitation Wind Pressure Humidity
00:00 +10°C° 0 mm 1 mps 753 mmHg 88%
01:00 +9°C° 0 mm 1 mps 754 mmHg 90%
02:00 +9°C° 0 mm 1 mps 754 mmHg 90%
03:00 +8°C° 0 mm 1 mps 754 mmHg 91%
04:00 +8°C° 0 mm 1 mps 754 mmHg 91%
05:00 +10°C° 0 mm 1 mps 755 mmHg 82%
06:00 +11°C° 0 mm 1 mps 755 mmHg 74%
07:00 +13°C° 0 mm 1 mps 755 mmHg 66%
08:00 +14°C° 0 mm 1 mps 755 mmHg 61%
09:00 +16°C° 0 mm 2 mps 754 mmHg 55%
10:00 +18°C° 0 mm 3 mps 754 mmHg 50%
11:00 +19°C° 0 mm 4 mps 753 mmHg 49%
12:00 +21°C° 0 mm 4 mps 753 mmHg 49%
13:00 +22°C° 0 mm 5 mps 752 mmHg 48%
14:00 +22°C° 0 mm 5 mps 752 mmHg 51%
15:00 +22°C° 0 mm 5 mps 751 mmHg 53%
16:00 +22°C° 0 mm 5 mps 751 mmHg 56%
17:00 +22°C° 0 mm 5 mps 751 mmHg 60%
18:00 +21°C° 0 mm 4 mps 750 mmHg 64%
19:00 +21°C° 0 mm 4 mps 750 mmHg 68%
20:00 +20°C° 0.2 mm 4 mps 749 mmHg 77%
21:00 +19°C° 0.2 mm 3 mps 749 mmHg 85%
22:00 +18°C° 0.2 mm 3 mps 748 mmHg 94%
23:00 +17°C° 0.1 mm 3 mps 748 mmHg 95%
Show more